WA7ZVY-4 Weather Reports


Display with metric or nautical units.
time (UTC)temp
F
wind
direction
speed
MPH
gust
MPH
rain 1hr
in
rain 24hr
in
rain mn
in
humidity
%
barometer
mb
20260510145105 54 0 0.0 0.0 0.00 0.00 0.00 95 1018.0
20260510144855 54 0 0.0 5.0 0.00 0.00 0.00 95 1017.9
20260510144550 54 0 0.0 5.0 0.00 0.00 0.00 95 1018.0
20260510144348 54 0 0.0 5.0 0.00 0.00 0.00 95 1018.0
20260510143841 54 0 0.0 5.0 0.00 0.00 0.00 95 1018.0
20260510143514 54 0 0.0 5.0 0.00 0.00 0.00 95 1018.0
20260510143334 54 0 0.0 5.0 0.00 0.00 0.00 95 1018.0
20260510142957 54 323 1.0 3.0 0.00 0.00 0.00 95 1017.9
20260510142827 54 0 0.0 0.0 0.00 0.00 0.00 95 1017.9
20260510142440 54 0 0.0 0.0 0.00 0.00 0.00 95 1017.9
20260510142323 54 0 0.0 0.0 0.00 0.00 0.00 95 1017.9
20260510141923 54 0 0.0 0.0 0.00 0.00 0.00 95 1017.8
20260510141813 54 0 0.0 0.0 0.00 0.00 0.00 95 1017.8
20260510141406 54 0 0.0 0.0 0.00 0.00 0.00 96 1017.8
20260510141306 54 0 0.0 0.0 0.00 0.00 0.00 96 1017.8
20260510140849 53 0 0.0 5.0 0.00 0.00 0.00 96 1017.8
20260510140759 53 0 0.0 5.0 0.00 0.00 0.00 96 1017.8
20260510140332 53 0 0.0 5.0 0.00 0.00 0.00 96 1017.7
20260510140252 53 0 0.0 5.0 0.00 0.00 0.00 96 1017.7
20260510135815 53 0 0.0 5.0 0.00 0.00 0.00 96 1017.6
20260510135745 53 322 2.0 5.0 0.00 0.00 0.00 96 1017.6
20260510135258 53 0 0.0 3.0 0.00 0.00 0.00 96 1017.6
20260510135238 53 0 0.0 3.0 0.00 0.00 0.00 96 1017.6
20260510134741 53 327 1.0 3.0 0.00 0.00 0.00 96 1017.5
20260510134731 53 327 1.0 3.0 0.00 0.00 0.00 96 1017.5
20260510134224 53 0 0.0 0.0 0.00 0.00 0.00 94 1017.6
20260510133717 53 0 0.0 0.0 0.00 0.00 0.00 95 1017.4
20260510133707 53 0 0.0 0.0 0.00 0.00 0.00 95 1017.4
20260510133210 53 334 3.0 6.0 0.00 0.00 0.00 95 1017.4
20260510132703 53 0 0.0 6.0 0.00 0.00 0.00 95 1017.4
20260510132633 53 0 0.0 6.0 0.00 0.00 0.00 95 1017.4
20260510132156 53 309 3.0 6.0 0.00 0.00 0.00 95 1017.4
20260510132116 53 309 3.0 6.0 0.00 0.00 0.00 95 1017.4
20260510131649 53 303 3.0 6.0 0.00 0.00 0.00 95 1017.5
20260510131559 53 303 3.0 6.0 0.00 0.00 0.00 95 1017.4
20260510131142 53 0 0.0 0.0 0.00 0.00 0.00 95 1017.2
20260510131042 53 0 0.0 0.0 0.00 0.00 0.00 95 1017.2
20260510130635 53 0 0.0 0.0 0.00 0.00 0.00 95 1017.0
20260510130525 53 0 0.0 0.0 0.00 0.00 0.00 95 1016.9
20260510130128 53 0 0.0 0.0 0.00 0.00 0.00 95 1016.9
20260510130008 53 0 0.0 0.0 0.00 0.00 0.00 94 1016.9
20260510125621 53 0 0.0 0.0 0.00 0.00 0.00 94 1017.0
20260510125451 53 0 0.0 0.0 0.00 0.00 0.00 94 1017.1
20260510125114 53 0 0.0 0.0 0.00 0.00 0.00 94 1017.0
20260510124934 53 0 0.0 0.0 0.00 0.00 0.00 94 1017.0
20260510124607 53 0 0.0 0.0 0.00 0.00 0.00 94 1016.9
20260510124417 53 0 0.0 0.0 0.00 0.00 0.00 94 1016.9
20260510124100 53 0 0.0 0.0 0.00 0.00 0.00 94 1017.1
20260510123900 53 0 0.0 0.0 0.00 0.00 0.00 94 1017.2
20260510123553 53 0 0.0 0.0 0.00 0.00 0.00 94 1017.4
20260510123343 53 0 0.0 0.0 0.00 0.00 0.00 94 1017.5
20260510123046 53 0 0.0 0.0 0.00 0.00 0.00 94 1017.5
20260510122826 53 0 0.0 0.0 0.00 0.00 0.00 94 1017.4
20260510122540 53 308 3.0 6.0 0.00 0.00 0.00 94 1017.4
20260510122309 53 0 0.0 6.0 0.00 0.00 0.00 94 1017.3
20260510122032 53 29 2.0 6.0 0.00 0.00 0.00 93 1017.2
20260510121752 53 0 0.0 6.0 0.00 0.00 0.00 93 1017.1
20260510121525 53 0 0.0 6.0 0.00 0.00 0.00 93 1017.3
20260510121235 53 35 3.0 6.0 0.00 0.00 0.00 93 1017.1
20260510120718 53 347 2.0 5.0 0.00 0.00 0.00 93 1017.1
20260510120511 53 347 2.0 6.0 0.00 0.00 0.00 93 1017.2
20260510120201 53 7 2.0 6.0 0.00 0.00 0.00 93 1017.1
20260510120004 53 7 2.0 6.0 0.00 0.00 0.00 93 1017.1
20260510115644 53 338 2.0 6.0 0.00 0.00 0.00 93 1017.2
20260510115457 53 338 2.0 6.0 0.00 0.00 0.00 93 1017.3
20260510115127 53 298 3.0 6.0 0.00 0.00 0.00 93 1017.4
20260510114950 53 298 3.0 6.0 0.00 0.00 0.00 93 1017.3
20260510114610 53 0 0.0 0.0 0.00 0.00 0.00 93 1017.2
20260510114443 53 0 0.0 0.0 0.00 0.00 0.00 93 1017.3
20260510114053 53 0 0.0 0.0 0.00 0.00 0.00 93 1017.5
20260510113937 53 0 0.0 0.0 0.00 0.00 0.00 93 1017.4
20260510113536 53 0 0.0 0.0 0.00 0.00 0.00 92 1017.4
20260510113429 53 0 0.0 0.0 0.00 0.00 0.00 92 1017.5
20260510113019 53 0 0.0 7.0 0.00 0.00 0.00 92 1017.5
20260510112922 53 0 0.0 7.0 0.00 0.00 0.00 92 1017.5
20260510112502 53 0 2.0 7.0 0.00 0.00 0.00 92 1017.3
20260510112415 53 0 2.0 7.0 0.00 0.00 0.00 92 1017.3
20260510111945 53 0 0.0 7.0 0.00 0.00 0.00 93 1017.2
20260510111908 54 0 0.0 7.0 0.00 0.00 0.00 93 1017.2
20260510111428 54 18 1.0 7.0 0.00 0.00 0.00 93 1017.3
20260510111401 54 18 1.0 7.0 0.00 0.00 0.00 93 1017.3
20260510110911 53 0 0.0 7.0 0.00 0.00 0.00 93 1017.3
20260510110854 54 0 0.0 7.0 0.00 0.00 0.00 93 1017.3
20260510110347 54 8 5.0 7.0 0.00 0.00 0.00 93 1017.4
20260510105837 53 0 0.0 7.0 0.00 0.00 0.00 93 1017.4
20260510105333 54 0 0.0 6.0 0.00 0.00 0.00 93 1017.4
20260510105321 54 0 0.0 6.0 0.00 0.00 0.00 93 1017.4
20260510104826 53 0 0.0 6.0 0.00 0.00 0.00 94 1017.4
20260510104802 54 0 0.0 6.0 0.00 0.00 0.00 94 1017.4
20260510104246 53 15 1.0 6.0 0.00 0.00 0.00 94 1017.3
20260510103812 53 0 0.0 6.0 0.00 0.00 0.00 94 1017.3
20260510103728 53 350 2.0 6.0 0.00 0.00 0.00 94 1017.3
20260510103305 53 0 0.0 6.0 0.00 0.00 0.00 94 1017.3
20260510103212 53 26 2.0 4.0 0.00 0.00 0.00 95 1017.2
20260510102758 53 305 3.0 7.0 0.00 0.00 0.00 95 1017.3
20260510102654 53 305 3.0 7.0 0.00 0.00 0.00 95 1017.4
20260510102251 53 319 6.0 7.0 0.00 0.00 0.00 95 1017.4
20260510102138 53 310 2.0 7.0 0.00 0.00 0.00 95 1017.5
20260510101744 53 14 3.0 7.0 0.00 0.00 0.00 95 1017.4
20260510101620 54 14 4.0 7.0 0.00 0.00 0.00 95 1017.5
20260510101237 53 315 3.0 7.0 0.00 0.00 0.00 95 1017.4
20260510101103 54 315 7.0 7.0 0.00 0.00 0.00 95 1017.4
20260510100730 53 294 3.0 6.0 0.00 0.00 0.00 95 1017.4
20260510100547 53 294 3.0 6.0 0.00 0.00 0.00 95 1017.1
20260510100223 53 306 2.0 4.0 0.00 0.00 0.00 95 1016.8
20260510100030 53 306 2.0 7.0 0.00 0.00 0.00 95 1016.9
20260510095716 53 14 1.0 7.0 0.00 0.00 0.00 95 1016.9
20260510095512 54 14 1.0 7.0 0.00 0.00 0.00 95 1016.9
20260510095209 54 341 4.0 7.0 0.00 0.00 0.00 95 1016.9
20260510094956 54 341 3.0 7.0 0.00 0.00 0.00 95 1016.8
20260510094702 54 46 2.0 7.0 0.00 0.00 0.00 95 1016.9
20260510094438 54 46 4.0 7.0 0.00 0.00 0.00 95 1016.9
20260510094156 54 21 6.0 6.0 0.00 0.00 0.00 95 1016.9
20260510093921 54 0 0.0 5.0 0.00 0.00 0.00 95 1017.2
20260510093648 54 0 0.0 5.0 0.00 0.00 0.00 95 1017.2
20260510093404 54 0 0.0 5.0 0.00 0.00 0.00 95 1017.2
20260510093141 54 352 2.0 5.0 0.00 0.00 0.00 95 1017.2
20260510092847 54 341 3.0 6.0 0.00 0.00 0.00 95 1017.3
20260510092634 54 288 3.0 6.0 0.00 0.00 0.00 95 1017.3
20260510092330 54 288 5.0 6.0 0.00 0.00 0.00 95 1017.2
20260510092128 54 343 3.0 6.0 0.00 0.00 0.00 95 1017.1
20260510091813 54 0 0.0 6.0 0.00 0.00 0.00 95 1017.0
20260510091619 54 5 6.0 6.0 0.00 0.00 0.00 95 1016.9
20260510091256 54 26 3.0 6.0 0.00 0.00 0.00 95 1017.0
20260510091112 54 302 2.0 5.0 0.00 0.00 0.00 95 1017.0
20260510090739 54 331 2.0 5.0 0.00 0.00 0.00 95 1017.0
20260510090605 54 331 2.0 5.0 0.00 0.00 0.00 95 1016.9
20260510090222 54 324 2.0 5.0 0.00 0.00 0.00 95 1016.9
20260510090058 54 324 2.0 5.0 0.00 0.00 0.00 95 1017.0
20260510085705 54 4 5.0 5.0 0.00 0.00 0.00 95 1016.9
20260510085551 54 0 0.0 0.0 0.00 0.00 0.00 95 1017.0
20260510085148 54 12 2.0 7.0 0.00 0.00 0.00 95 1016.9
20260510085045 54 12 2.0 7.0 0.00 0.00 0.00 95 1016.9
20260510084631 54 329 2.0 7.0 0.00 0.00 0.00 95 1016.9
20260510084537 54 329 2.0 7.0 0.00 0.00 0.00 95 1017.0
20260510084114 54 336 1.0 7.0 0.00 0.00 0.00 95 1016.9
20260510084031 54 336 1.0 7.0 0.00 0.00 0.00 95 1016.9
20260510083557 54 8 6.0 7.0 0.00 0.00 0.00 95 1016.8
20260510083523 54 337 2.0 7.0 0.00 0.00 0.00 95 1017.0
20260510083041 54 25 3.0 7.0 0.00 0.00 0.00 95 1016.9
20260510082524 54 64 2.0 5.0 0.00 0.00 0.00 95 1016.8
20260510082509 54 64 5.0 5.0 0.00 0.00 0.00 95 1016.8
20260510082007 54 324 2.0 9.0 0.00 0.00 0.00 95 1017.0
20260510082002 54 324 2.0 9.0 0.00 0.00 0.00 95 1017.0
20260510081455 54 324 5.0 9.0 0.00 0.00 0.00 95 1016.9
20260510081449 54 16 1.0 9.0 0.00 0.00 0.00 95 1016.9
20260510080948 54 51 2.0 9.0 0.00 0.00 0.00 95 1016.9
20260510080932 54 51 2.0 9.0 0.00 0.00 0.00 95 1016.9
20260510080441 54 25 2.0 9.0 0.00 0.00 0.00 95 1016.9
20260510080416 54 25 2.0 9.0 0.00 0.00 0.00 95 1016.9
20260510075934 54 308 2.0 4.0 0.00 0.00 0.00 95 1016.8
20260510075858 54 308 2.0 6.0 0.00 0.00 0.00 95 1016.8
20260510075427 54 309 3.0 6.0 0.00 0.00 0.00 95 1016.8
20260510075341 54 0 0.0 6.0 0.00 0.00 0.00 95 1016.9
20260510074920 54 288 2.0 6.0 0.00 0.00 0.00 95 1017.0
20260510074824 54 288 4.0 6.0 0.00 0.00 0.00 95 1016.9
20260510074413 54 337 2.0 6.0 0.00 0.00 0.00 94 1016.8
20260510074307 54 0 0.0 6.0 0.00 0.00 0.00 94 1016.8
20260510073908 54 0 0.0 0.0 0.00 0.00 0.00 94 1016.7
20260510073750 54 0 0.0 0.0 0.00 0.00 0.00 94 1016.8
20260510073359 54 0 0.0 0.0 0.00 0.00 0.00 95 1016.8
20260510073233 54 42 1.0 10.0 0.00 0.00 0.00 95 1016.8
20260510072852 54 42 1.0 10.0 0.00 0.00 0.00 94 1016.7
20260510072716 54 42 3.0 10.0 0.00 0.00 0.00 94 1016.7
20260510072345 54 327 5.0 10.0 0.00 0.00 0.00 94 1016.7
20260510071838 54 0 0.0 10.0 0.00 0.00 0.00 94 1016.7
20260510071642 54 14 5.0 10.0 0.00 0.00 0.00 94 1016.7
20260510071332 54 56 5.0 8.0 0.00 0.00 0.00 94 1016.7
20260510071125 54 0 0.0 5.0 0.00 0.00 0.00 94 1016.7
20260510070824 54 0 0.0 5.0 0.00 0.00 0.00 94 1016.7
20260510070608 54 7 2.0 8.0 0.00 0.00 0.00 94 1016.7
20260510070318 54 0 0.0 8.0 0.00 0.00 0.00 95 1016.7
20260510070051 54 0 0.0 8.0 0.00 0.00 0.00 95 1016.6
20260510065810 54 0 0.0 8.0 0.00 0.00 0.00 95 1016.7
20260510065534 54 7 3.0 8.0 0.00 0.00 0.00 95 1016.7
20260510065306 54 0 0.0 8.0 0.00 0.00 0.00 94 1016.6
20260510064756 54 0 0.0 8.0 0.00 0.00 0.00 95 1016.6
20260510064500 54 0 0.0 5.0 0.00 0.00 0.00 95 1016.7
20260510064249 54 15 2.0 5.0 0.00 0.00 0.00 95 1016.7
20260510063943 54 0 0.0 0.0 0.00 0.00 0.00 95 1016.9
20260510063742 54 2 1.0 7.0 0.00 0.00 0.00 95 1016.9
20260510063426 54 0 0.0 7.0 0.00 0.00 0.00 95 1016.9
20260510063235 54 23 3.0 7.0 0.00 0.00 0.00 95 1016.8
20260510062910 54 23 6.0 7.0 0.00 0.00 0.00 95 1016.9
20260510062728 54 18 3.0 7.0 0.00 0.00 0.00 95 1016.8
20260510062355 54 18 3.0 7.0 0.00 0.00 0.00 95 1016.8
20260510062221 54 37 5.0 7.0 0.00 0.00 0.00 95 1016.8
20260510061835 54 1 1.0 2.0 0.00 0.00 0.00 95 1016.8
20260510061715 54 330 2.0 9.0 0.00 0.00 0.00 95 1016.7
20260510061320 54 0 0.0 9.0 0.00 0.00 0.00 95 1016.8
20260510061208 54 14 4.0 9.0 0.00 0.00 0.00 95 1016.8
20260510060801 54 0 0.0 9.0 0.00 0.00 0.00 95 1016.8
20260510060700 54 11 5.0 9.0 0.00 0.00 0.00 95 1016.8
20260510060245 54 11 4.0 9.0 0.00 0.00 0.00 95 1016.7
20260510060155 54 11 4.0 9.0 0.00 0.00 0.00 95 1016.7
20260510055727 54 29 3.0 7.0 0.00 0.00 0.00 95 1016.7
20260510055646 54 29 3.0 7.0 0.00 0.00 0.00 95 1016.7
20260510055211 54 43 2.0 7.0 0.00 0.00 0.00 95 1016.7
20260510055139 54 43 2.0 7.0 0.00 0.00 0.00 95 1016.7
20260510054653 54 18 3.0 7.0 0.00 0.00 0.00 95 1016.8
20260510054633 54 18 3.0 7.0 0.00 0.00 0.00 95 1016.8
20260510054125 54 4 2.0 9.0 0.00 0.00 0.00 95 1016.8
20260510053618 54 74 6.0 9.0 0.00 0.00 0.00 95 1016.8
20260510053103 54 2 4.0 9.0 0.00 0.00 0.00 95 1016.8
20260510052604 54 324 7.0 9.0 0.00 0.00 0.00 95 1016.7
20260510052057 55 32 7.0 9.0 0.00 0.00 0.00 95 1016.6
20260510052029 54 32 4.0 9.0 0.00 0.00 0.00 95 1016.6
20260510051550 54 329 2.0 10.0 0.00 0.00 0.00 95 1016.6
20260510051511 54 329 3.0 10.0 0.00 0.00 0.00 95 1016.7
20260510051044 54 14 3.0 10.0 0.00 0.00 0.00 95 1016.7
20260510050954 55 14 2.0 10.0 0.00 0.00 0.00 95 1016.7
20260510050536 54 308 4.0 10.0 0.00 0.00 0.00 95 1016.6
20260510050437 54 308 7.0 10.0 0.00 0.00 0.00 95 1016.6
20260510050029 54 26 7.0 10.0 0.00 0.00 0.00 95 1016.7
20260510045920 54 26 5.0 10.0 0.00 0.00 0.00 95 1016.7
20260510045523 54 285 7.0 10.0 0.00 0.00 0.00 95 1016.7
20260510045403 54 25 5.0 10.0 0.00 0.00 0.00 95 1016.6
20260510044846 55 12 3.0 6.0 0.00 0.00 0.00 95 1016.4
20260510044508 55 18 8.0 10.0 0.00 0.00 0.00 95 1016.3
20260510044329 55 18 7.0 10.0 0.00 0.00 0.00 95 1016.4
20260510044001 55 86 6.0 10.0 0.00 0.00 0.00 95 1016.3
20260510043812 55 357 1.0 10.0 0.00 0.00 0.00 95 1016.3
20260510043454 55 11 4.0 10.0 0.00 0.00 0.00 95 1016.3
20260510043255 55 28 5.0 10.0 0.00 0.00 0.00 95 1016.2
20260510042947 55 14 8.0 10.0 0.00 0.00 0.00 95 1016.2
20260510042739 55 319 5.0 10.0 0.00 0.00 0.00 95 1016.1
20260510042440 55 319 5.0 11.0 0.00 0.00 0.00 95 1016.2
20260510042221 55 316 5.0 11.0 0.00 0.00 0.00 95 1016.0
20260510041933 55 316 5.0 11.0 0.00 0.00 0.00 95 1016.0
20260510041426 55 21 5.0 11.0 0.00 0.00 0.00 95 1016.1
20260510041147 55 33 8.0 11.0 0.00 0.00 0.00 95 1016.1
20260510040919 55 326 4.0 11.0 0.00 0.00 0.00 95 1016.0
20260510040630 55 316 8.0 11.0 0.00 0.00 0.00 95 1016.0
20260510040412 55 338 2.0 2.0 0.00 0.00 0.00 95 1016.1
20260510040113 55 11 6.0 13.0 0.00 0.00 0.00 94 1015.9
20260510035907 55 326 5.0 13.0 0.00 0.00 0.00 94 1015.9
20260510035556 55 333 5.0 13.0 0.00 0.00 0.00 94 1015.8
20260510035358 55 334 2.0 13.0 0.00 0.00 0.00 94 1015.8
20260510035039 55 16 6.0 13.0 0.00 0.00 0.00 94 1015.7
20260510034851 55 357 7.0 13.0 0.00 0.00 0.00 94 1015.6
20260510034522 55 5 9.0 13.0 0.00 0.00 0.00 94 1015.6
20260510034344 55 310 6.0 8.0 0.00 0.00 0.00 94 1015.5
20260510034005 55 4 3.0 10.0 0.00 0.00 0.00 94 1015.5
20260510033837 55 4 6.0 10.0 0.00 0.00 0.00 93 1015.5
20260510033448 55 316 6.0 10.0 0.00 0.00 0.00 93 1015.5
20260510033330 55 316 2.0 10.0 0.00 0.00 0.00 93 1015.5
20260510032931 56 341 5.0 10.0 0.00 0.00 0.00 93 1015.5
20260510032823 56 319 4.0 10.0 0.00 0.00 0.00 93 1015.5
20260510032414 56 14 8.0 10.0 0.00 0.00 0.00 93 1015.4
20260510032316 56 16 1.0 10.0 0.00 0.00 0.00 93 1015.3
20260510031857 56 357 1.0 10.0 0.00 0.00 0.00 92 1015.2
20260510031809 56 0 0.0 10.0 0.00 0.00 0.00 92 1015.2
20260510031340 56 0 0.0 10.0 0.00 0.00 0.00 92 1015.2
20260510031302 56 0 0.0 10.0 0.00 0.00 0.00 92 1015.2
20260510030823 56 16 5.0 11.0 0.00 0.00 0.00 92 1015.2
20260510030755 56 348 8.0 11.0 0.00 0.00 0.00 92 1015.2
20260510030306 56 0 0.0 11.0 0.00 0.00 0.00 92 1015.2
20260510030248 56 348 6.0 11.0 0.00 0.00 0.00 92 1015.2
20260510025741 56 8 3.0 11.0 0.00 0.00 0.00 92 1015.1
20260510024727 57 19 3.0 10.0 0.00 0.00 0.00 91 1015.3
20260510024715 57 19 5.0 10.0 0.00 0.00 0.00 91 1015.3
20260510024220 57 352 5.0 10.0 0.00 0.00 0.00 90 1015.2
20260510024158 57 352 5.0 10.0 0.00 0.00 0.00 90 1015.2
20260510023206 57 291 6.0 10.0 0.00 0.00 0.00 90 1015.2
20260510023124 57 291 4.0 10.0 0.00 0.00 0.00 90 1015.2
20260510022700 57 330 4.0 10.0 0.00 0.00 0.00 90 1015.3
20260510022607 57 330 7.0 10.0 0.00 0.00 0.00 89 1015.2
20260510022152 57 352 5.0 10.0 0.00 0.00 0.00 89 1015.2
20260510022051 57 310 4.0 10.0 0.00 0.00 0.00 89 1015.2
20260510021645 57 29 10.0 10.0 0.00 0.00 0.00 89 1015.1
20260510021534 58 280 5.0 10.0 0.00 0.00 0.00 89 1015.2
20260510021138 58 21 7.0 13.0 0.00 0.00 0.00 88 1015.2
20260510020631 58 345 5.0 13.0 0.00 0.00 0.00 88 1015.2
20260510020459 58 331 6.0 13.0 0.00 0.00 0.00 88 1015.2
20260510020124 58 46 4.0 13.0 0.00 0.00 0.00 87 1015.1
20260510015942 58 340 7.0 13.0 0.00 0.00 0.00 87 1015.1
20260510015617 58 333 9.0 13.0 0.00 0.00 0.00 87 1015.2
20260510015425 58 333 11.0 13.0 0.00 0.00 0.00 87 1015.2
20260510015110 58 337 8.0 12.0 0.00 0.00 0.00 86 1015.3
20260510014908 58 322 7.0 12.0 0.00 0.00 0.00 86 1015.3
20260510014603 59 313 8.0 12.0 0.00 0.00 0.00 85 1015.2
20260510014353 59 285 5.0 12.0 0.00 0.00 0.00 85 1015.3
20260510014056 59 324 7.0 10.0 0.00 0.00 0.00 84 1015.3
20260510013834 59 324 8.0 10.0 0.00 0.00 0.00 84 1015.3
20260510013549 59 357 8.0 8.0 0.00 0.00 0.00 83 1015.3
20260510013316 60 340 5.0 11.0 0.00 0.00 0.00 83 1015.3
20260510013042 60 306 7.0 11.0 0.00 0.00 0.00 83 1015.2
20260510012800 60 350 2.0 11.0 0.00 0.00 0.00 82 1015.2
20260510012535 60 326 5.0 11.0 0.00 0.00 0.00 82 1015.3
20260510012243 60 341 7.0 11.0 0.00 0.00 0.00 81 1015.3
20260510012029 60 341 5.0 11.0 0.00 0.00 0.00 80 1015.3
20260510011727 61 315 6.0 11.0 0.00 0.00 0.00 79 1015.3
20260510011521 61 347 8.0 10.0 0.00 0.00 0.00 78 1015.4
20260510011209 61 336 4.0 10.0 0.00 0.00 0.00 78 1015.4
20260510011014 61 336 7.0 10.0 0.00 0.00 0.00 78 1015.4
20260510010653 62 324 7.0 10.0 0.00 0.00 0.00 77 1015.4
20260510010507 62 324 7.0 10.0 0.00 0.00 0.00 77 1015.4
20260510010135 62 326 6.0 10.0 0.00 0.00 0.00 77 1015.4
20260510010000 62 15 4.0 16.0 0.00 0.00 0.00 76 1015.4
20260510005618 62 329 5.0 16.0 0.00 0.00 0.00 76 1015.4
20260510005453 62 329 6.0 16.0 0.00 0.00 0.00 75 1015.5
20260510005101 62 334 7.0 16.0 0.00 0.00 0.00 74 1015.4
20260510004946 63 334 7.0 16.0 0.00 0.00 0.00 73 1015.4
20260510004439 63 320 7.0 16.0 0.00 0.00 0.00 72 1015.4
20260510003932 64 5 8.0 13.0 0.00 0.00 0.00 71 1015.4
20260510003510 64 310 9.0 13.0 0.00 0.00 0.00 74 1015.4
20260510003425 64 16 6.0 13.0 0.00 0.00 0.00 74 1015.4
20260510002953 63 42 8.0 10.0 0.00 0.00 0.00 74 1015.4
20260510002436 64 9 8.0 14.0 0.00 0.00 0.00 74 1015.4
20260510002411 64 9 7.0 14.0 0.00 0.00 0.00 74 1015.4
20260510001919 64 336 7.0 14.0 0.00 0.00 0.00 74 1015.4
20260510001904 64 336 8.0 14.0 0.00 0.00 0.00 74 1015.4
20260510001357 64 18 5.0 14.0 0.00 0.00 0.00 74 1015.4
20260510000845 64 274 5.0 10.0 0.00 0.00 0.00 74 1015.5
20260510000343 64 39 5.0 10.0 0.00 0.00 0.00 74 1015.5
20260510000328 64 39 6.0 10.0 0.00 0.00 0.00 74 1015.5
20260509235836 65 40 8.0 13.0 0.00 0.00 0.00 75 1015.6
20260509235811 65 40 8.0 13.0 0.00 0.00 0.00 75 1015.6
20260509235329 65 14 6.0 13.0 0.00 0.00 0.00 77 1015.6
20260509235254 64 357 5.0 13.0 0.00 0.00 0.00 77 1015.6
20260509234822 64 1 5.0 13.0 0.00 0.00 0.00 77 1015.4
20260509234737 64 322 8.0 13.0 0.00 0.00 0.00 78 1015.5
20260509233809 64 312 8.0 13.0 0.00 0.00 0.00 76 1015.5
20260509233703 63 322 8.0 13.0 0.00 0.00 0.00 76 1015.6
20260509233301 64 8 3.0 13.0 0.00 0.00 0.00 75 1015.5
20260509233146 64 16 7.0 13.0 0.00 0.00 0.00 76 1015.6
20260509232754 64 291 9.0 13.0 0.00 0.00 0.00 75 1015.6
20260509232629 64 291 11.0 13.0 0.00 0.00 0.00 75 1015.7
20260509232247 64 0 10.0 13.0 0.00 0.00 0.00 75 1015.7
20260509232112 64 22 6.0 13.0 0.00 0.00 0.00 74 1015.8
20260509231555 64 336 8.0 13.0 0.00 0.00 0.00 73 1015.7
20260509231233 65 308 5.0 11.0 0.00 0.00 0.00 73 1015.7
20260509231038 65 326 8.0 14.0 0.00 0.00 0.00 73 1015.7
20260509230726 64 301 6.0 14.0 0.00 0.00 0.00 74 1015.8
20260509230521 64 301 6.0 14.0 0.00 0.00 0.00 74 1015.8
20260509230219 64 306 7.0 14.0 0.00 0.00 0.00 74 1015.8
20260509230004 64 306 8.0 14.0 0.00 0.00 0.00 74 1015.9
20260509225712 64 310 8.0 14.0 0.00 0.00 0.00 72 1016.0
20260509225447 65 310 8.0 14.0 0.00 0.00 0.00 72 1016.1
20260509225205 65 309 6.0 11.0 0.00 0.00 0.00 73 1016.0
20260509224930 65 316 7.0 11.0 0.00 0.00 0.00 73 1015.8
20260509224658 65 338 8.0 11.0 0.00 0.00 0.00 72 1015.8
20260509224413 65 338 9.0 11.0 0.00 0.00 0.00 71 1015.8
20260509224151 65 313 10.0 13.0 0.00 0.00 0.00 72 1015.9
20260509223856 66 315 8.0 13.0 0.00 0.00 0.00 72 1015.9
20260509223644 66 306 7.0 13.0 0.00 0.00 0.00 71 1015.8
20260509223339 66 313 7.0 13.0 0.00 0.00 0.00 71 1015.8
20260509223137 66 327 13.0 13.0 0.00 0.00 0.00 71 1015.9
20260509222822 66 296 6.0 13.0 0.00 0.00 0.00 72 1015.8
20260509222630 66 19 8.0 13.0 0.00 0.00 0.00 72 1015.9
20260509222307 65 35 6.0 11.0 0.00 0.00 0.00 72 1015.7
20260509222124 65 324 5.0 11.0 0.00 0.00 0.00 72 1015.7
20260509221748 65 0 7.0 10.0 0.00 0.00 0.00 72 1015.7
20260509221616 65 288 5.0 10.0 0.00 0.00 0.00 72 1015.7
20260509221231 65 317 6.0 10.0 0.00 0.00 0.00 72 1015.8
20260509221109 65 317 7.0 10.0 0.00 0.00 0.00 73 1015.8
20260509220714 65 315 5.0 11.0 0.00 0.00 0.00 73 1015.8
20260509220602 65 315 7.0 11.0 0.00 0.00 0.00 73 1015.9
20260509220157 65 305 8.0 11.0 0.00 0.00 0.00 73 1016.1
20260509220055 65 305 7.0 11.0 0.00 0.00 0.00 73 1016.1
20260509215640 65 47 6.0 11.0 0.00 0.00 0.00 74 1016.3
20260509215548 65 47 6.0 11.0 0.00 0.00 0.00 74 1016.3
20260509215124 65 25 7.0 11.0 0.00 0.00 0.00 75 1016.3
20260509215041 65 25 8.0 11.0 0.00 0.00 0.00 75 1016.3
20260509214605 65 313 8.0 11.0 0.00 0.00 0.00 75 1016.4
20260509214534 65 313 5.0 11.0 0.00 0.00 0.00 75 1016.4
20260509214048 64 23 6.0 10.0 0.00 0.00 0.00 76 1016.5
20260509213531 64 344 7.0 14.0 0.00 0.00 0.00 75 1016.7
20260509213520 64 344 5.0 14.0 0.00 0.00 0.00 75 1016.7
20260509213013 64 28 7.0 14.0 0.00 0.00 0.00 77 1016.7
20260509212506 64 19 8.0 14.0 0.00 0.00 0.00 76 1016.5
20260509212457 64 19 6.0 14.0 0.00 0.00 0.00 76 1016.5
20260509211959 64 317 11.0 14.0 0.00 0.00 0.00 76 1016.6
20260509211942 64 317 10.0 14.0 0.00 0.00 0.00 76 1016.6
20260509211452 64 21 12.0 14.0 0.00 0.00 0.00 77 1016.7
20260509211423 64 357 6.0 10.0 0.00 0.00 0.00 77 1016.7
20260509210945 64 2 7.0 14.0 0.00 0.00 0.00 77 1016.8
20260509210907 64 25 10.0 14.0 0.00 0.00 0.00 78 1016.9
20260509210438 63 334 8.0 14.0 0.00 0.00 0.00 78 1016.9
20260509210350 63 334 11.0 14.0 0.00 0.00 0.00 78 1016.9
20260509205931 63 1 8.0 14.0 0.00 0.00 0.00 78 1016.9
20260509205832 62 78 7.0 14.0 0.00 0.00 0.00 78 1016.9
20260509205424 62 270 10.0 13.0 0.00 0.00 0.00 77 1016.9
20260509205318 62 295 5.0 13.0 0.00 0.00 0.00 77 1016.9
20260509204916 63 310 9.0 13.0 0.00 0.00 0.00 76 1017.1
20260509204758 63 341 8.0 13.0 0.00 0.00 0.00 76 1017.0
20260509204409 63 355 8.0 13.0 0.00 0.00 0.00 76 1017.1
20260509204241 63 329 12.0 13.0 0.00 0.00 0.00 75 1017.2
20260509203903 64 295 12.0 13.0 0.00 0.00 0.00 78 1017.2
20260509203724 63 8 8.0 13.0 0.00 0.00 0.00 78 1017.2
20260509203355 63 8 10.0 13.0 0.00 0.00 0.00 78 1017.3
20260509203208 63 324 10.0 13.0 0.00 0.00 0.00 78 1017.2
20260509202849 63 15 5.0 13.0 0.00 0.00 0.00 78 1017.1
20260509202341 62 49 7.0 16.0 0.00 0.00 0.00 77 1017.3
20260509202133 62 338 7.0 16.0 0.00 0.00 0.00 76 1017.2
20260509201834 63 309 8.0 16.0 0.00 0.00 0.00 75 1017.2
20260509201616 64 308 9.0 16.0 0.00 0.00 0.00 75 1017.3
20260509201327 64 317 9.0 16.0 0.00 0.00 0.00 75 1017.2
20260509201059 64 317 10.0 16.0 0.00 0.00 0.00 74 1017.4
20260509200820 64 320 8.0 10.0 0.00 0.00 0.00 74 1017.4
20260509200542 64 301 8.0 9.0 0.00 0.00 0.00 74 1017.1
20260509195807 64 35 4.0 13.0 0.00 0.00 0.00 73 1017.3
20260509195508 64 298 8.0 13.0 0.00 0.00 0.00 72 1017.3
20260509195259 64 322 7.0 13.0 0.00 0.00 0.00 73 1017.3
20260509194951 65 2 5.0 13.0 0.00 0.00 0.00 74 1017.3
20260509194752 64 329 9.0 13.0 0.00 0.00 0.00 74 1017.4
20260509194434 64 336 6.0 13.0 0.00 0.00 0.00 76 1017.6
20260509194245 64 326 9.0 13.0 0.00 0.00 0.00 76 1017.6
20260509193917 63 326 9.0 13.0 0.00 0.00 0.00 77 1017.5
20260509193738 63 4 9.0 11.0 0.00 0.00 0.00 77 1017.5
20260509193400 62 352 6.0 11.0 0.00 0.00 0.00 77 1017.5
20260509193231 62 313 5.0 11.0 0.00 0.00 0.00 76 1017.5
20260509192843 62 326 7.0 11.0 0.00 0.00 0.00 76 1017.6
20260509192724 62 337 8.0 11.0 0.00 0.00 0.00 76 1017.5
20260509192326 63 296 7.0 11.0 0.00 0.00 0.00 77 1017.6
20260509192217 62 323 9.0 11.0 0.00 0.00 0.00 77 1017.7
20260509191809 62 341 4.0 8.0 0.00 0.00 0.00 77 1017.7
20260509191711 62 305 7.0 8.0 0.00 0.00 0.00 76 1017.7
20260509191253 62 5 9.0 11.0 0.00 0.00 0.00 76 1017.8
20260509191203 63 5 8.0 11.0 0.00 0.00 0.00 76 1017.9
20260509190735 63 306 7.0 11.0 0.00 0.00 0.00 76 1017.7
20260509190656 63 306 8.0 11.0 0.00 0.00 0.00 76 1017.7
20260509190218 64 345 7.0 11.0 0.00 0.00 0.00 78 1017.8
20260509190149 63 28 5.0 11.0 0.00 0.00 0.00 78 1017.8
20260509185701 63 30 5.0 11.0 0.00 0.00 0.00 78 1018.0
20260509185642 63 30 5.0 11.0 0.00 0.00 0.00 78 1018.0
20260509185144 62 316 6.0 10.0 0.00 0.00 0.00 78 1018.1
20260509185135 62 316 6.0 10.0 0.00 0.00 0.00 78 1018.1
20260509184627 63 16 6.0 10.0 0.00 0.00 0.00 78 1018.1
20260509184122 62 67 7.0 10.0 0.00 0.00 0.00 78 1018.2
20260509184110 62 67 8.0 10.0 0.00 0.00 0.00 78 1018.2
20260509183614 62 319 6.0 10.0 0.00 0.00 0.00 79 1018.2
20260509183553 62 319 7.0 10.0 0.00 0.00 0.00 80 1018.2
20260509183107 61 312 6.0 10.0 0.00 0.00 0.00 79 1018.2
20260509183036 61 312 8.0 10.0 0.00 0.00 0.00 79 1018.2
20260509182519 62 324 8.0 10.0 0.00 0.00 0.00 79 1018.2
20260509182053 62 336 7.0 10.0 0.00 0.00 0.00 79 1018.1
20260509182002 62 336 4.0 10.0 0.00 0.00 0.00 79 1018.1
20260509181546 62 312 6.0 10.0 0.00 0.00 0.00 79 1018.1
20260509181445 62 36 6.0 9.0 0.00 0.00 0.00 79 1018.3
20260509181039 62 330 8.0 9.0 0.00 0.00 0.00 79 1018.3
20260509180928 62 330 4.0 9.0 0.00 0.00 0.00 79 1018.3
20260509180532 61 338 5.0 8.0 0.00 0.00 0.00 80 1018.3
20260509180411 61 338 7.0 8.0 0.00 0.00 0.00 81 1018.2
20260509180025 60 278 4.0 10.0 0.00 0.00 0.00 80 1018.3
20260509175854 60 278 4.0 10.0 0.00 0.00 0.00 80 1018.3
20260509175337 60 0 0.0 10.0 0.00 0.00 0.00 80 1018.2
20260509175011 60 357 2.0 10.0 0.00 0.00 0.00 79 1018.3
20260509174820 60 336 3.0 10.0 0.00 0.00 0.00 79 1018.3
20260509174504 61 357 7.0 9.0 0.00 0.00 0.00 80 1018.3
20260509174303 60 282 6.0 9.0 0.00 0.00 0.00 80 1018.4
20260509173957 60 333 5.0 10.0 0.00 0.00 0.00 81 1018.4
20260509173746 60 313 4.0 10.0 0.00 0.00 0.00 81 1018.4
20260509173450 60 333 5.0 10.0 0.00 0.00 0.00 81 1018.5
20260509173229 60 295 7.0 10.0 0.00 0.00 0.00 82 1018.5
20260509172943 60 295 6.0 10.0 0.00 0.00 0.00 81 1018.6
20260509172712 60 313 7.0 10.0 0.00 0.00 0.00 81 1018.6
20260509172437 59 313 8.0 10.0 0.00 0.00 0.00 81 1018.6
20260509172155 59 309 6.0 10.0 0.00 0.00 0.00 81 1018.6
20260509171929 60 347 6.0 10.0 0.00 0.00 0.00 81 1018.6
20260509171640 60 354 6.0 10.0 0.00 0.00 0.00 81 1018.6
20260509171422 60 0 0.0 10.0 0.00 0.00 0.00 81 1018.6
20260509170915 60 317 4.0 10.0 0.00 0.00 0.00 81 1018.6
20260509170604 60 322 8.0 10.0 0.00 0.00 0.00 82 1018.7
20260509170408 60 305 4.0 7.0 0.00 0.00 0.00 82 1018.6
20260509170047 60 9 3.0 7.0 0.00 0.00 0.00 82 1018.7
20260509165901 60 9 3.0 7.0 0.00 0.00 0.00 82 1018.8
20260509165530 60 316 4.0 7.0 0.00 0.00 0.00 83 1018.8
20260509165354 59 316 2.0 7.0 0.00 0.00 0.00 83 1018.8
20260509164847 59 305 6.0 7.0 0.00 0.00 0.00 84 1018.9
20260509164456 59 341 2.0 8.0 0.00 0.00 0.00 84 1018.9
20260509164340 59 341 5.0 8.0 0.00 0.00 0.00 85 1018.9
20260509163939 59 334 1.0 8.0 0.00 0.00 0.00 85 1018.9
20260509163834 59 0 0.0 8.0 0.00 0.00 0.00 85 1018.9
20260509163422 59 267 1.0 8.0 0.00 0.00 0.00 84 1019.0
20260509163326 59 267 1.0 8.0 0.00 0.00 0.00 84 1019.0
20260509162906 59 331 8.0 8.0 0.00 0.00 0.00 84 1019.1
20260509162819 59 331 8.0 8.0 0.00 0.00 0.00 84 1019.1
20260509162352 59 302 5.0 6.0 0.00 0.00 0.00 83 1018.9
20260509162312 59 0 0.0 5.0 0.00 0.00 0.00 83 1018.8
20260509161831 59 266 3.0 5.0 0.00 0.00 0.00 84 1018.9
20260509161805 60 0 0.0 5.0 0.00 0.00 0.00 84 1018.9
20260509161316 59 0 0.0 5.0 0.00 0.00 0.00 85 1018.8
20260509161258 60 0 0.0 5.0 0.00 0.00 0.00 85 1018.8
20260509160751 60 315 2.0 4.0 0.00 0.00 0.00 86 1018.8
20260509160240 59 0 0.0 0.0 0.00 0.00 0.00 88 1018.8
20260509155737 58 124 2.0 6.0 0.00 0.00 0.00 89 1018.8
20260509155724 58 124 2.0 6.0 0.00 0.00 0.00 89 1018.8
20260509155230 58 21 1.0 6.0 0.00 0.00 0.00 91 1018.8
20260509155206 58 21 1.0 6.0 0.00 0.00 0.00 91 1018.8
20260509154723 57 75 2.0 6.0 0.00 0.00 0.00 92 1018.9
20260509154649 57 75 2.0 6.0 0.00 0.00 0.00 92 1018.9
20260509154216 57 42 3.0 6.0 0.00 0.00 0.00 93 1018.8
20260509154132 57 42 3.0 6.0 0.00 0.00 0.00 93 1018.8
20260509153709 56 0 0.0 0.0 0.00 0.00 0.00 94 1018.9
20260509153615 56 0 0.0 0.0 0.00 0.00 0.00 94 1018.8
20260509153202 56 0 0.0 0.0 0.00 0.00 0.00 95 1019.0
20260509153058 56 0 0.0 0.0 0.00 0.00 0.00 95 1019.0
20260509152655 55 0 0.0 0.0 0.00 0.00 0.00 96 1019.0
20260509152541 55 0 0.0 0.0 0.00 0.00 0.00 96 1019.0
20260509152148 55 0 0.0 0.0 0.00 0.00 0.00 96 1019.0
20260509152024 55 0 0.0 0.0 0.00 0.00 0.00 96 1019.0
20260509151643 55 0 0.0 0.0 0.00 0.00 0.00 97 1019.0
20260509151508 54 0 0.0 0.0 0.00 0.00 0.00 97 1019.0
20260509151134 54 0 0.0 0.0 0.00 0.00 0.00 97 1019.0
20260509150950 54 0 0.0 0.0 0.00 0.00 0.00 97 1019.0
20260509150627 54 0 0.0 0.0 0.00 0.00 0.00 98 1019.0
20260509150433 54 0 0.0 0.0 0.00 0.00 0.00 98 1019.0
20260509150120 54 0 0.0 0.0 0.00 0.00 0.00 98 1018.9
20260509145916 54 0 0.0 0.0 0.00 0.00 0.00 98 1018.9
20260509145613 53 98 3.0 7.0 0.00 0.00 0.00 99 1019.0
20260509145359 53 0 0.0 7.0 0.00 0.00 0.00 99 1018.9